Hourly Weather Allieres

Today, 26 November, Thursday

Time Temperature Precipitation Wind Pressure Humidity
00:00 +7°C° 0 mm 2 mps 717 mmHg 79%
01:00 +7°C° 0 mm 2 mps 716 mmHg 79%
02:00 +7°C° 0 mm 2 mps 716 mmHg 80%
03:00 +7°C° 0 mm 2 mps 716 mmHg 80%
04:00 +7°C° 0 mm 2 mps 716 mmHg 80%
05:00 +7°C° 0 mm 2 mps 716 mmHg 80%
06:00 +7°C° 0 mm 2 mps 716 mmHg 81%
07:00 +8°C° 0 mm 2 mps 717 mmHg 76%
08:00 +10°C° 0 mm 2 mps 717 mmHg 72%
09:00 +12°C° 0 mm 2 mps 717 mmHg 67%
10:00 +14°C° 0 mm 2 mps 717 mmHg 63%
11:00 +14°C° 0 mm 3 mps 717 mmHg 59%
12:00 +17°C° 0 mm 3 mps 717 mmHg 55%
13:00 +16°C° 0 mm 3 mps 717 mmHg 59%
14:00 +16°C° 0 mm 3 mps 717 mmHg 64%
15:00 +14°C° 0 mm 3 mps 717 mmHg 68%
16:00 +13°C° 0 mm 3 mps 717 mmHg 73%
17:00 +12°C° 0 mm 3 mps 717 mmHg 77%
18:00 +10°C° 0 mm 3 mps 717 mmHg 82%
19:00 +10°C° 0 mm 3 mps 717 mmHg 82%
20:00 +10°C° 0 mm 3 mps 717 mmHg 83%
21:00 +10°C° 0 mm 3 mps 717 mmHg 83%
22:00 +10°C° 0 mm 2 mps 717 mmHg 83%
23:00 +10°C° 0 mm 2 mps 717 mmHg 82%

Tomorrow, 27 November, Friday

Time Temperature Precipitation Wind Pressure Humidity
00:00 +10°C° 0 mm 2 mps 717 mmHg 82%
01:00 +9°C° 0 mm 2 mps 717 mmHg 82%
02:00 +9°C° 0 mm 2 mps 716 mmHg 81%
03:00 +9°C° 0 mm 2 mps 716 mmHg 81%
04:00 +9°C° 0 mm 2 mps 716 mmHg 81%
05:00 +9°C° 0 mm 2 mps 716 mmHg 82%
06:00 +8°C° 0 mm 2 mps 716 mmHg 82%
07:00 +9°C° 0 mm 2 mps 716 mmHg 79%
08:00 +10°C° 0 mm 2 mps 716 mmHg 75%
09:00 +12°C° 0 mm 2 mps 716 mmHg 72%
10:00 +13°C° 0 mm 2 mps 716 mmHg 68%
11:00 +15°C° 0 mm 2 mps 715 mmHg 65%
12:00 +16°C° 0 mm 2 mps 715 mmHg 62%
13:00 +14°C° 0 mm 3 mps 715 mmHg 65%
14:00 +14°C° 0 mm 3 mps 714 mmHg 69%
15:00 +13°C° 0 mm 3 mps 714 mmHg 72%
16:00 +12°C° 0 mm 3 mps 714 mmHg 75%
17:00 +11°C° 0 mm 3 mps 714 mmHg 79%
18:00 +10°C° 0 mm 3 mps 714 mmHg 82%
19:00 +10°C° 0 mm 3 mps 714 mmHg 82%
20:00 +10°C° 0 mm 3 mps 713 mmHg 82%
21:00 +10°C° 0 mm 3 mps 713 mmHg 82%
22:00 +10°C° 0 mm 3 mps 713 mmHg 83%
23:00 +9°C° 0 mm 3 mps 713 mmHg 83%

Day after tomorrow, 28 November, Saturday

Time Temperature Precipitation Wind Pressure Humidity
00:00 +9°C° 0 mm 3 mps 713 mmHg 84%
01:00 +9°C° 0 mm 3 mps 712 mmHg 84%
02:00 +9°C° 0 mm 3 mps 712 mmHg 84%
03:00 +8°C° 0 mm 2 mps 712 mmHg 85%
04:00 +8°C° 0 mm 2 mps 712 mmHg 85%
05:00 +8°C° 0 mm 2 mps 711 mmHg 85%
06:00 +8°C° 0 mm 2 mps 711 mmHg 86%
07:00 +9°C° 0.2 mm 2 mps 711 mmHg 84%
08:00 +9°C° 0.2 mm 2 mps 711 mmHg 83%
09:00 +10°C° 0.2 mm 2 mps 711 mmHg 81%
10:00 +10°C° 0.7 mm 2 mps 712 mmHg 82%
11:00 +12°C° 0.7 mm 2 mps 712 mmHg 82%
12:00 +11°C° 0.7 mm 3 mps 712 mmHg 83%
13:00 +11°C° 0.3 mm 3 mps 711 mmHg 85%
14:00 +11°C° 0.3 mm 3 mps 711 mmHg 86%
15:00 +11°C° 0.3 mm 3 mps 711 mmHg 88%
16:00 +10°C° 0.2 mm 3 mps 712 mmHg 90%
17:00 +10°C° 0.2 mm 2 mps 712 mmHg 91%
18:00 +9°C° 0.2 mm 2 mps 712 mmHg 92%
19:00 +9°C° 0 mm 2 mps 713 mmHg 92%
20:00 +8°C° 0 mm 2 mps 713 mmHg 91%
21:00 +8°C° 0 mm 2 mps 713 mmHg 91%
22:00 +8°C° 0 mm 2 mps 713 mmHg 90%
23:00 +8°C° 0 mm 2 mps 714 mmHg 89%

29 November, Sunday

Time Temperature Precipitation Wind Pressure Humidity
00:00 +8°C° 0 mm 1 mps 714 mmHg 88%
01:00 +8°C° 0 mm 1 mps 714 mmHg 87%
02:00 +8°C° 0 mm 1 mps 714 mmHg 87%
03:00 +8°C° 0 mm 1 mps 714 mmHg 86%
04:00 +8°C° 0 mm 1 mps 714 mmHg 85%
05:00 +8°C° 0 mm 1 mps 714 mmHg 85%
06:00 +8°C° 0 mm 1 mps 714 mmHg 85%
07:00 +9°C° 0 mm 1 mps 715 mmHg 80%
08:00 +9°C° 0 mm 0 mps 715 mmHg 76%
09:00 +10°C° 0 mm 0 mps 716 mmHg 72%
10:00 +12°C° 0 mm 0 mps 716 mmHg 68%
11:00 +13°C° 0 mm 0 mps 716 mmHg 63%
12:00 +15°C° 0 mm 0 mps 716 mmHg 58%
13:00 +14°C° 0 mm 0 mps 716 mmHg 61%
14:00 +15°C° 0 mm 1 mps 716 mmHg 63%
15:00 +15°C° 0 mm 1 mps 716 mmHg 66%
16:00 +13°C° 0 mm 1 mps 716 mmHg 71%
17:00 +12°C° 0 mm 1 mps 716 mmHg 77%
18:00 +10°C° 0 mm 1 mps 716 mmHg 82%
19:00 +10°C° 0 mm 1 mps 716 mmHg 82%
20:00 +9°C° 0 mm 1 mps 717 mmHg 82%
21:00 +9°C° 0 mm 1 mps 717 mmHg 82%
22:00 +9°C° 0 mm 1 mps 717 mmHg 81%
23:00 +9°C° 0 mm 1 mps 717 mmHg 80%

30 November, Monday

Time Temperature Precipitation Wind Pressure Humidity
00:00 +9°C° 0 mm 1 mps 718 mmHg 80%
01:00 +9°C° 0 mm 1 mps 718 mmHg 79%
02:00 +8°C° 0 mm 1 mps 717 mmHg 79%
03:00 +8°C° 0 mm 1 mps 717 mmHg 79%
04:00 +8°C° 0 mm 1 mps 718 mmHg 79%
05:00 +8°C° 0 mm 1 mps 718 mmHg 79%
06:00 +8°C° 0 mm 1 mps 718 mmHg 78%
07:00 +9°C° 0 mm 1 mps 718 mmHg 74%
08:00 +9°C° 0 mm 0 mps 718 mmHg 70%
09:00 +11°C° 0 mm 0 mps 719 mmHg 66%
10:00 +12°C° 0 mm 0 mps 719 mmHg 62%
11:00 +14°C° 0 mm 1 mps 719 mmHg 58%
12:00 +15°C° 0 mm 1 mps 719 mmHg 54%
13:00 +15°C° 0 mm 1 mps 719 mmHg 59%
14:00 +14°C° 0 mm 1 mps 719 mmHg 64%
15:00 +14°C° 0 mm 1 mps 719 mmHg 69%
16:00 +12°C° 0 mm 1 mps 719 mmHg 76%
17:00 +11°C° 0 mm 1 mps 719 mmHg 82%
18:00 +9°C° 0 mm 1 mps 719 mmHg 89%
19:00 +8°C° 0 mm 0 mps 719 mmHg 89%
20:00 +8°C° 0 mm 0 mps 720 mmHg 89%
21:00 +7°C° 0 mm 0 mps 720 mmHg 89%
22:00 +7°C° 0 mm 0 mps 720 mmHg 89%
23:00 +7°C° 0 mm 0 mps 720 mmHg 90%

1 December, Tuesday

Time Temperature Precipitation Wind Pressure Humidity
00:00 +6°C° 0 mm 0 mps 720 mmHg 90%
01:00 +6°C° 0 mm 0 mps 720 mmHg 90%
02:00 +7°C° 0 mm 0 mps 720 mmHg 90%
03:00 +7°C° 0 mm 0 mps 720 mmHg 90%
04:00 +8°C° 0 mm 1 mps 720 mmHg 90%
05:00 +8°C° 0 mm 1 mps 720 mmHg 89%
06:00 +8°C° 0 mm 1 mps 720 mmHg 89%
07:00 +8°C° 0 mm 1 mps 720 mmHg 86%
08:00 +9°C° 0 mm 1 mps 720 mmHg 84%
09:00 +9°C° 0 mm 1 mps 720 mmHg 81%
10:00 +10°C° 0 mm 1 mps 720 mmHg 78%
11:00 +11°C° 0 mm 1 mps 720 mmHg 75%
12:00 +11°C° 0 mm 1 mps 720 mmHg 72%
13:00 +11°C° 0 mm 1 mps 720 mmHg 74%
14:00 +10°C° 0 mm 1 mps 720 mmHg 75%
15:00 +10°C° 0 mm 1 mps 719 mmHg 77%
16:00 +9°C° 0 mm 1 mps 719 mmHg 80%
17:00 +8°C° 0 mm 1 mps 720 mmHg 82%
18:00 +7°C° 0 mm 1 mps 720 mmHg 85%
19:00 +6°C° 0 mm 1 mps 720 mmHg 86%
20:00 +5°C° 0 mm 0 mps 720 mmHg 87%
21:00 +4°C° 0 mm 0 mps 720 mmHg 89%
22:00 +4°C° 0 mm 0 mps 720 mmHg 87%
23:00 +5°C° 0 mm 0 mps 720 mmHg 86%
Show more